Starlink 5095

operational
NORAD ID: 56885 Int'l Des: 2023-083 Owner: SPXS Country: US Constellation: starlink
LEOCIRCULAR

About Starlink 5095

Description loading...

Live Position

Loading 3D Globe...

Upcoming Passes

Altitude History

Altitude vs Time

uPlot chart will show altitude changes over time

Two-Line Element Set

1 56885U 23083K 25300.77268779 .00001258 00000-0 10816-3 0 9996
2 56885 43.0000 84.2325 0000794 278.8703 81.2050 15.02541803131673
Epoch: Oct 27, 2025 • Age: 25 hours

Current Status

Altitude 563.8 km
Velocity 7.58 km/s
Sub-Earth Point -22.21°S, 76.4°E
Launch Date Jun 12, 2023
Age 2.3 years
Type internet

Technical Details

Classification Payload
Mass 305.00 kg
Dry Mass 290.00 kg
Total Mass 305.00 kg
Length 0.20 m
Diameter 2.80 m
Span 9.00 m
Shape Box + pan
Manufacturer SPXS
Bus Type Starlink
Phase Status In Orbit
Owner/State SPXS/US

Large Constellations

Loading constellations...